Kbely Air Base

Jump to: basic info | weather | frequencies | runways | comments

Related pages: nearby airports | nearby navaids | notams | map

Basic information (top)

Codes: LKKB
Location: lon 50.121399, lat 14.543600, elev 939 ft / 286 m msl
Status: medium_airport

Weather (top)

Current conditions (rec'd 2015/01/31 03:00Z):

LKKB 310300Z 25009KT CAVOK M02/M05 Q0978

Airport forecast (rec'd 2015/01/22 18:45Z):

TAF COR LKKB 221745Z 2218/2318 2218/2318 05005KT 1200 DZ BR SCT002 OVC005 
      TEMPO 2218/2224 0600 DZ FG BKN002 OVC005 
      BECMG 2301/2303 02008KT 3500 -RASN BR OVC015 
      TEMPO 2303/2312 1200 -SN BR BKN008 
      BECMG 2310/2312 35012KT

Frequencies (top)

Verify before use: may be inaccurate or out of date.

APP: 124.675 MHz (APP)
GCA: 123.3 MHz (PRECISION)
TWR: 120.875 MHz (TWR)

Runways (top)

06/24: 6,562 x 148 ft (2,000 x 45 m) — paved — lighted

Latest comments (top)

No comments yet for Kbely Air Base

More... (top)

See also NOTAMs and nearby airports and navaids, or visit the Kbely Air Base page at the main OurAirports website..